Location: Carri�res
(48.9069°N, 2.1792°E)
Time: 13:33:06
(UTC+00:00)

Tsikada Rocket - Pass Details

Date: 17 January 2021
Orbit: 957 x 1010 km, 82.9° (Epoch: 25 February)

Event Time Altitude Azimuth Distance (km) Brightness Sun altitude
Rises 17:16:28 0° 185° (S) 3,711 7.4 -8.3°
Reaches altitude 10° 17:18:59 10° 185° (S) 2,759 6.7 -8.7°
Maximum altitude 17:25:20 87° 97° (E) 997 4.1 -9.7°
Drops below altitude 10° 17:31:39 10° 10° (N) 2,742 6.1 -10.7°
Sets 17:34:09 0° 10° (N) 3,686 6.7 -11.1°
